Regional Weather Roundup
Issued by NWS Goodland, KS

Home | Current Version | Previous Version | Graphics & Text | Print | Product List | Glossary On
Versions: 1 2 3 4 5 6 7 8 9 10 11 12 13 14 15 16 17 18 19 20 21 22 23 24 25 26 27 28 29 30 31 32 33 34 35 36 37 38 39 40 41 42 43 44 45 46 47 48 49 50
000
ASUS43 KGLD 041108
RWRGLD

GOODLAND FORECAST AREA HOURLY WEATHER ROUNDUP
NATIONAL WEATHER SERVICE GOODLAND KS
500 AM MDT SAT JUL 04 2015

...OFFICIAL OBSERVATIONS...

CITY           SKY/WX    TMP DP  RH WIND       PRES   REMARKS
GOODLAND KS    CLEAR     63  59  87 S10       30.00F
HILL CITY KS   PTCLDY    63  60  90 E5        30.00S
IMPERIAL NEB   CLEAR     63  58  83 SE8       29.98F
MCCOOK NEB     CLEAR     63  59  87 E5        29.99S
AKRON CO       PTCLDY    63  60  90 S12       30.01F
BURLINGTON CO  CLEAR     61  58  90 SE13      30.02F
LIMON CO       FOG       54  54 100 CALM      30.07F VSB 1/4
$$

...UNOFFICIAL OBSERVATIONS...

CITY           SKY/WX    TMP DP  RH WIND       PRES   REMARKS
COLBY KS       CLEAR     64  63  94 SE9       30.02S
GOVE KS          N/A     61  32  33 MISG        N/A
NORTON KS      CLEAR     61  55  82 E3        30.00R
SHARON SPRINGS   N/A     63  60  88 SE10        N/A
KIT CARSON CO    N/A     61  57  88 MISG        N/A
$$



USA.gov is the U.S. government's official web portal to all federal, state and local government web resources and services.